Location: Stoke Bliss
(52.2667°N, 2.5167°W)
Time: 14:33:15
(UTC+00:00)

Cosmos 1980 Rocket - Pass Details

Date: 03 March 2021
Orbit: 828 x 851 km, 71.0° (Epoch: 13 April)

Event Time Altitude Azimuth Distance (km) Brightness Sun altitude
Rises 18:53:02 0° 232° (SW) 3,394 6.2 -9.9°
Reaches altitude 10° 18:55:36 10° 239° (WSW) 2,465 5.6 -10.3°
Maximum altitude 19:00:59 44° 311° (NW) 1,164 3.4 -11.1°
Drops below altitude 10° 19:06:27 10° 24° (NNE) 2,489 4.5 -12.0°
Sets 19:09:03 0° 31° (NNE) 3,429 5.1 -12.4°
